STARLINK-11501 [DTC] (62268 NORAD) Tracking and Keplerian Element Data

This shows tracking and keplerian element data for the satellite.

Feedback or suggestion? Click here.




ElementValue
Catalog62268
NameSTARLINK-11501 [DTC]
Epoch Orbit1014
Epoch Day34.0892034
Epoch Year2025
RAAN305.4396
Inclination42.9991
Eccentricity0.0001251
Argument of Perigee261.5474
Mean Anonmoly98.5254
Mean Motion15.77848814
Decay Rate-8.08E-06
L11 62268U 24237B 25034.08920340 -.00000808 00000+0 -17798-5 0 9996
L22 62268 42.9991 305.4396 0001251 261.5474 98.5254 15.77848814 10140



Live tracking and technical data element details for STARLINK-11501 [DTC] (NORAD 62268). STARLINK-11501 [DTC] can be tracked NOW for your location showing map with azimuth and elevation plus other details from your city location.







IsCatalogInMostPopularTable: catalog: 62268, numindb: 19
Update: records affected: 1



GetName: 62268 STARLINK-11501 [DTC]

Hit Count: updated at: Sun, 18 May 2025 23:14:20 GMT